Location: ????? ???????
(25.7275°N, 32.5929°E)
Time: 10:11:21
(UTC+00:00)

Helios 1A Rocket - Pass Details

Date: 02 March 2021
Orbit: 563 x 585 km, 98.3° (Epoch: 15 April)

Event Time Altitude Azimuth Distance (km) Brightness Sun altitude
Rises 17:28:17 0° 180° (S) 2,775 6.4 -22.5°
Reaches altitude 10° 17:30:30 10° 187° (S) 1,876 5.6 -23.0°
Maximum altitude 17:34:22 44° 260° (W) 797 4.0 -23.8°
Drops below altitude 10° 17:38:15 10° 333° (NNW) 1,872 5.9 -24.7°
Sets 17:40:28 0° 339° (NNW) 2,768 6.7 -25.2°
